Location: Dreilärchen
(47.9312°N, 8.6113°E)
Time: 19:42:18
(UTC+00:00)

USA 305 - Pass Details

Date: 26 May 2022
Orbit: 549 x 553 km, 54.0° (Epoch: 14 June)

Event Time Altitude Azimuth Distance (km) Brightness Sun altitude
Exits shadow 01:02:59 30° 247° (WSW) 1,012 3.8 -17.4°
Maximum altitude 01:05:00 81° 331° (NNW) 562 2.8 -17.3°
Drops below altitude 10° 01:09:09 10° 60° (ENE) 1,828 6.3 -17.0°
Sets 01:11:23 0° 61° (ENE) 2,724 7.3 -16.8°
